Cold Bay, AK

7:14 PM AKST on February 23, 2017 (GMT -0900)
Cold Bay

Weather History for PACD - October, 2013

Change the Weather History Date:

Saturday, October 5, 2013

  Actual Average Record
Temperature  
Mean Temperature 48 °F 43 °F  
Max Temperature 53 °F 48 °F 58 °F (1963)
Min Temperature 43 °F 38 °F 27 °F (1992)
Degree Days  
Heating Degree Days 17 22  
Month to date heating degree days 97 107  
Since 1 July heating degree days 1226 1453  
Cooling Degree Days 0 0  
Month to date cooling degree days 0 0  
Year to date cooling degree days 0 0  
Moisture  
Dew Point 43 °F    
Average Humidity 81    
Maximum Humidity 93    
Minimum Humidity 70    
Precipitation  
Precipitation 0.20 in 0.15 in 2.57 in (1985)
Month to date precipitation 0.28 0.78  
Year to date precipitation 33.14 28.25  
Snow  
Snow 0.00 in 0.00 in - ()
Month to date snowfall 0.0 0.1  
Since 1 July snowfall 0.0 0.1  
Since 1 September snowfall 0.0 0.1  
Snow Depth 0.00 in    
Sea Level Pressure  
Sea Level Pressure 29.74 in    
Wind  
Wind Speed 20 mph (WSW)    
Max Wind Speed 32 mph    
Max Gust Speed 38 mph    
Visibility 9 miles    
Events Rain    
T = Trace of Precipitation, MM = Missing Value Source: NWS Daily Summary

Daily Weather History Graph

Daily Weather History Graph

Search for Another Location

Airport or City:

Trip Planner

Search our weather history database for the weather conditions in past years. The results will help you decide how hot, cold, wet, or windy it might be!

Date:

Astronomy

Oct. 05, 2013 Rise Set
Actual Time 9:02 AM AKDT 8:15 PM AKDT
Civil Twilight 8:25 AM AKDT 8:51 PM AKDT
Nautical Twilight 7:43 AM AKDT 9:33 PM AKDT
Astronomical Twilight 7:00 AM AKDT 10:16 PM AKDT
Moon 10:09 AM AKDT (10/5) 8:23 PM AKDT (10/5)
Length of Visible Light 12h 25m
Length of Day
11h 12m
New Moon, 1% of the Moon is Illuminated
Oct 5
New Moon
Oct 11
First Quarter
Oct 18
Full
Oct 26
Last Quarter
Nov 3
New

Hourly Weather History & Observations

Time (AKDT) Temp. Windchill Dew Point Humidity Pressure Visibility Wind Dir Wind Speed Gust Speed Precip Events Conditions
12:53 AM 43.0 °F 35.4 °F 34.0 °F 71% 29.89 in 10.0 mi SE 16.1 mph - N/A   Overcast
1:53 AM 44.1 °F 37.1 °F 37.0 °F 76% 29.83 in 10.0 mi SE 15.0 mph - 0.01 in Rain Light Rain
2:53 AM 45.0 °F 37.6 °F 39.9 °F 82% 29.80 in 10.0 mi SSE 17.3 mph 24.2 mph 0.02 in Rain Light Rain
3:53 AM 46.0 °F 38.0 °F 42.1 °F 86% 29.77 in 7.0 mi SSE 21.9 mph 26.5 mph 0.09 in Rain Rain
4:53 AM 46.9 °F - 42.1 °F 83% 29.73 in 10.0 mi SE 15.0 mph - 0.07 in   Overcast
5:53 AM 46.9 °F - 44.1 °F 90% 29.69 in 10.0 mi SE 21.9 mph 28.8 mph 0.01 in   Overcast
6:53 AM 48.9 °F - 45.0 °F 86% 29.66 in 10.0 mi SE 18.4 mph 27.6 mph N/A   Overcast
7:53 AM 50.0 °F - 45.0 °F 83% 29.65 in 10.0 mi South 9.2 mph - N/A   Overcast
8:53 AM 52.0 °F - 45.0 °F 77% 29.66 in 10.0 mi WSW 12.7 mph - N/A   Overcast
9:31 AM 50.0 °F - 44.6 °F 82% 29.64 in 8.0 mi WSW 20.7 mph - 0.00 in Rain Light Rain
9:49 AM 48.2 °F - 46.4 °F 93% 29.64 in 8.0 mi WSW 23.0 mph 29.9 mph 0.00 in Rain Light Rain
9:53 AM 48.9 °F - 45.0 °F 86% 29.64 in 9.0 mi WSW 24.2 mph - 0.00 in   Overcast
10:37 AM 48.2 °F - 44.6 °F 87% 29.60 in 10.0 mi WSW 27.6 mph - N/A   Mostly Cloudy
10:53 AM 48.9 °F - 44.1 °F 83% 29.62 in 10.0 mi WSW 29.9 mph - N/A   Mostly Cloudy
11:53 AM 51.1 °F - 44.1 °F 77% 29.68 in 10.0 mi West 21.9 mph - N/A   Mostly Cloudy
12:00 PM 51.8 °F - 44.6 °F 76% 29.67 in 10.0 mi WSW 17.3 mph 26.5 mph N/A   Mostly Cloudy
12:24 PM 50.0 °F - 42.8 °F 76% 29.68 in 10.0 mi West 13.8 mph 21.9 mph N/A   Mostly Cloudy
12:53 PM 50.0 °F - 44.1 °F 80% 29.68 in 9.0 mi West 16.1 mph 24.2 mph N/A   Mostly Cloudy
1:53 PM 51.1 °F - 44.1 °F 77% 29.68 in 8.0 mi West 26.5 mph 32.2 mph 0.00 in   Mostly Cloudy
2:53 PM 50.0 °F - 43.0 °F 77% 29.69 in 9.0 mi West 24.2 mph 31.1 mph N/A   Mostly Cloudy
3:24 PM 51.8 °F - 44.6 °F 76% 29.70 in 8.0 mi West 29.9 mph 36.8 mph N/A   Mostly Cloudy
3:53 PM 51.1 °F - 44.1 °F 77% 29.70 in 7.0 mi West 26.5 mph 33.4 mph N/A   Mostly Cloudy
4:00 PM 51.8 °F - 42.8 °F 71% 29.70 in 7.0 mi West 25.3 mph 34.5 mph N/A   Overcast
4:53 PM 50.0 °F - 44.1 °F 80% 29.71 in 7.0 mi West 28.8 mph 34.5 mph 0.00 in Rain Light Rain
5:20 PM 50.0 °F - 42.8 °F 76% 29.71 in 8.0 mi West 24.2 mph 34.5 mph N/A   Overcast
5:53 PM 50.0 °F - 44.1 °F 80% 29.72 in 7.0 mi West 28.8 mph 38.0 mph N/A   Overcast
6:45 PM 48.2 °F - 42.8 °F 82% 29.74 in 8.0 mi West 25.3 mph - N/A   Overcast
6:53 PM 48.9 °F - 43.0 °F 80% 29.75 in 8.0 mi West 24.2 mph - N/A   Overcast
7:13 PM 48.2 °F - 42.8 °F 82% 29.76 in 7.0 mi West 24.2 mph 31.1 mph N/A   Overcast
7:53 PM 48.0 °F - 42.1 °F 80% 29.78 in 8.0 mi West 20.7 mph - N/A   Overcast
8:36 PM 48.2 °F - 42.8 °F 82% 29.79 in 9.0 mi West 19.6 mph - N/A   Overcast
8:53 PM 48.0 °F - 42.1 °F 80% 29.80 in 9.0 mi West 20.7 mph - N/A   Overcast
9:31 PM 48.2 °F - 42.8 °F 82% 29.81 in 10.0 mi West 15.0 mph - N/A   Overcast
9:46 PM 48.2 °F - 42.8 °F 82% 29.82 in 10.0 mi West 16.1 mph - N/A   Overcast
9:53 PM 48.0 °F - 42.1 °F 80% 29.83 in 10.0 mi West 16.1 mph - N/A   Overcast
10:23 PM 48.2 °F - 42.8 °F 82% 29.83 in 9.0 mi WSW 17.3 mph - N/A   Overcast
10:38 PM 46.4 °F 39.0 °F 42.8 °F 87% 29.83 in 9.0 mi WSW 19.6 mph - N/A   Overcast
10:53 PM 46.0 °F 39.6 °F 42.1 °F 86% 29.84 in 9.0 mi WSW 15.0 mph - N/A   Overcast
11:27 PM 46.4 °F 39.2 °F 42.8 °F 87% 29.84 in 9.0 mi WSW 18.4 mph 26.5 mph N/A   Overcast
11:53 PM 46.0 °F 38.5 °F 41.0 °F 83% 29.85 in 10.0 mi WSW 19.6 mph - N/A   Overcast